World > North America > United States > North Dakota

Cooperstown, North Dakota Regional Weather

Lat: 47.44N, Lon: 98.12W
Wx Zone: NDZ028
Feedback

Cooperstown, ND Regional Weather

Expires:201907211300;;403306
ASUS43 KBIS 211210
RWRND 

NORTH DAKOTA REGIONAL WEATHER ROUNDUP
NATIONAL WEATHER SERVICE BISMARCK ND
700 AM CDT SUN JUL 21 2019

NOTE: "FAIR" INDICATES FEW OR NO CLOUDS BELOW 12,000 FEET WITH NO
SIGNIFICANT WEATHER AND/OR OBSTRUCTIONS TO VISIBILITY.



NDZ022-023-025-028>030-036>039-047>053-211300-
SOUTHEAST NORTH DAKOTA
  
CITY           SKY/WX    TMP DP  RH WIND       PRES   REMARKS
FARGO          CLEAR     59  57  93 N6        30.09R                  
6HR MIN TEMP:  56; 6HR MAX TEMP:  63;                                

JAMESTOWN      CLEAR     59  57  93 N6        30.12R                  
$$ 

  

SKY/WX - Weather  TMP - Temperature  DP - Dew Point  RH - Relative Humidity
WIND - Wind Direction/Speed PRES - Barometric Pressure VSB - Visibility
WCI - Wind Chill Index E13G22 Wind - East Wind 13 mph/Gusts of 22 mph